Orbital Elements at Epoch 2459000.5 (2020-May-31.0) TDB
Reference: JPL 27 (heliocentric ecliptic J2000)
Element | Value | Uncertainty (1-sigma) | Units |
e | .1498516014360042 | 4.2692e-08 | |
a | 2.583300091588378 | 1.0543e-08 | au |
q | 2.196188435874083 | 1.1103e-07 | au |
i | 14.50886531016656 | 4.4045e-06 | deg |
node | 23.96361298425361 | 1.8908e-05 | deg |
peri | 74.28448736350734 | 2.4259e-05 | deg |
M | 298.1787490666391 | 1.4792e-05 | deg |
tp | 2459260.932994017535 (2021-Feb-15.43299402) | 6.2619e-05 | TDB |
period | 1516.56390692215 4.15 | 9.2843e-06 2.542e-08 | d yr |
n | .2373787206439695 | 1.4532e-09 | deg/d |
Q | 2.970411747302673 | 1.2123e-08 | au |
|
| | Orbit Determination Parameters
Additional Information
|